sat.trackr.live / text

‹ back to catalog

STARLINK-31614

NORAD 59328 · 2024-057J

PAYLOAD ACTIVE UNKNOWN

§ Identity

Operator
Country
US
Launch date
2024-03-25
Launch site
AFETR
Launch vehicle
Mass (kg)
RCS (m²)

Purposes: comms

External: N2YO · Heavens-Above · Gunter

§ Orbital elements

Epoch: 2026-05-24T23:13:47.212320Z

Period
94.27 min
Inclination
43.0027°
Eccentricity
0.0001088
Mean motion
15.27575200 rev/d
Perigee alt
482.3 km
Apogee alt
483.8 km
Semi-major
6,861.2 km
B*
3.3051e-5
RAAN
116.4029°
Arg perigee
269.9529°
Mean anomaly
90.1198°
Rev number
12,150

§ Raw data

STARLINK-316141 59328U 24057J   26144.96790755  .00000647  00000+0  33051-4 0  99922 59328  43.0027 116.4029 0001088 269.9529  90.1198 15.27575200121508

JSON: /api/v1/satellites/59328 · /tle

For live sub-satellite position, see the globe view (requires WebGL).

§ Visibility from observer

Set your observer location to see the next 7 days of passes ≥ 10°. The values pass through the URL so the page stays shareable.

No JS? Fill the form by hand. The geolocation button needs JavaScript.